カタログに戻る

ECHO 1 DEB

METAL OBJ

運用中LEO
NORAD 53·DEBRIS·🇺🇸 United States

打ち上げ Aug 12, 1960 から Cape Canaveral Space Force Station

Loading…

次のパス (今後24時間)

TLE

最新Source: Space-Track

元期: Sep 6, 2026, 23:48 UTC

1 00053U 60009E   26249.99201468 -.00000166  00000-0 -80543-3 0  9993
2 00053  47.2764  89.9828 0098381 318.3193  41.0130 12.17413383945393

AllMySatでECHO 1 DEBをリアルタイム追跡

Download on the App Store